Regional Weather Roundup
Issued by NWS Portland, ME

Home | Current Version | Previous Version | Text Only | Print | Product List | Glossary On
Versions: 1 2 3 4 5 6 7 8 9 10 11 12 13 14 15 16 17 18 19 20 21 22 23 24 25 26 27 28 29 30 31 32 33 34 35 36 37 38 39 40 41 42 43 44 45 46 47 48 49 50
000
ASUS41 KGYX 291805
RWRGYX
WEATHER ROUNDUP FOR MAINE AND NEW HAMPSHIRE
NATIONAL WEATHER SERVICE GRAY ME
200 PM EDT FRI JUL 29 2016

MEZ002-005-006-010-012-015-018-020-021-024-026-027-029-291900-
MAINE

CITY           SKY/WX    TMP DP  RH WIND       PRES   REMARKS
PORTLAND       CLOUDY    78  66  66 NE8       29.88F
6HR MIN TEMP:  72; 6HR MAX TEMP:  79;

SANFORD          N/A     78  66  66 N9        29.88F
BAR HARBOR     CLOUDY    76  68  76 E5        29.88S
WISCASSET      CLOUDY    78  66  66 VRB3      29.89F
6HR MIN TEMP:  71; 6HR MAX TEMP:  80;

ROCKLAND       CLOUDY    75  70  84 VRB5      29.88F
FRYEBURG       CLOUDY    78  67  68 CALM      29.91F
6HR MIN TEMP:  68; 6HR MAX TEMP:  78; 6HR PCP:  0.14;

LEWISTONAUBURN CLOUDY    76  63  64 N8        29.89F
AUGUSTA        CLOUDY    80  63  55 VRB5      29.90F
6HR MIN TEMP:  69; 6HR MAX TEMP:  80;

WATERVILLE     PTSUNNY   79  63  57 NE9       29.88S
BANGOR         CLOUDY    84  63  49 N5        29.89F
6HR MIN TEMP:  73; 6HR MAX TEMP:  85;

GREENVILLE       N/A     74  51  44 CALM      29.91F
6HR MIN TEMP:  66; 6HR MAX TEMP:  77;

MILLINOCKET    CLOUDY    77  57  50 S3        29.91F
6HR MIN TEMP:  66; 6HR MAX TEMP:  77;

HOULTON        CLOUDY    76  62  62 CALM      29.89S
6HR MIN TEMP:  64; 6HR MAX TEMP:  77;

PRESQUE ISLE   PTSUNNY   78  60  53 VRB5      29.90F
6HR MIN TEMP:  62; 6HR MAX TEMP:  78;

FRENCHVILLE    PTSUNNY   73  55  53 N7        29.92R
6HR MIN TEMP:  66; 6HR MAX TEMP:  76;

CARIBOU        PTSUNNY   77  60  55 VRB5      29.89S
6HR MIN TEMP:  67; 6HR MAX TEMP:  78;

$$

NHZ002-005-008-009-011-012-014-291900-
NEW HAMPSHIRE

CITY           SKY/WX    TMP DP  RH WIND       PRES   REMARKS
PORTSMOUTH     PTSUNNY   79  68  69 VRB7      29.85F
ROCHESTER      CLOUDY    77  67  71 VRB6      29.87F
6HR MIN TEMP:  68; 6HR MAX TEMP:  78; 6HR PCP:  0.34;

NASHUA         MOSUNNY   82  68  62 N6        29.86F
MANCHESTER     PTSUNNY   83  65  54 NE9       29.84F
6HR MIN TEMP:  71; 6HR MAX TEMP:  83; 6HR PCP:  0.01;

CONCORD        CLOUDY    84  64  50 VRB5      29.87F
6HR MIN TEMP:  70; 6HR MAX TEMP:  84; 6HR PCP:  0.01;

LACONIA        CLOUDY    79  63  57 E5        29.89F
PLYMOUTH       CLOUDY    76  63  64 NW6       29.89S
BERLIN         SUNNY     82  54  37 VRB3      29.92F
6HR MIN TEMP:  65; 6HR MAX TEMP:  82;

WHITEFIELD     PTSUNNY   79  61  53 CALM      29.92F
6HR MIN TEMP:  64; 6HR MAX TEMP:  82; 6HR PCP: TRACE;

JAFFREY        CLOUDY    80  66  62 VRB5      29.90F
6HR MIN TEMP:  69; 6HR MAX TEMP:  80; 6HR PCP: TRACE;

KEENE          PTSUNNY   81  67  62 NE7       29.86F
LEBANON        SUNNY     85  61  44 NE9G16    29.88F
6HR MIN TEMP:  69; 6HR MAX TEMP:  85; 6HR PCP:  0.02;

MT WASHINGTON  NOT AVBL
$$

VTZ005-007-008-291900-
VERMONT

CITY           SKY/WX    TMP DP  RH WIND       PRES   REMARKS
ST JOHNSBURY     N/A     83  57  41 MISG      29.89F
MONTPELIER     FAIR      78  59  51 N8        29.96F
BURLINGTON     FAIR      82  60  47 N12       29.92S
$$

MAZ007-012-024-CTZ003-RIZ002-NYZ038-NYZ072-291900-
SOUTHERN NEW ENGLAND AND NY

CITY           SKY/WX    TMP DP  RH WIND       PRES   REMARKS
BOSTON         PTSUNNY   77  70  79 E8        29.85F
WORCESTER      MOSUNNY   79  63  57 NE6       29.88F
NANTUCKET      RAIN      67  65  93 NE9       29.82F FOG
PROVIDENCE     CLOUDY    78  70  76 N9        29.84F
HARTFORD       MOSUNNY   85  63  47 CALM      29.83F
ALBANY         MOSUNNY   84  65  52 N7        29.86F
NEW YORK CITY  MOSUNNY   80  68  66 NE12      29.83F
$$

ANZ081-ANZ082-ANZ150-NHZ014-MEZ023>029-291900-
COASTAL MARINE OBSERVATIONS

STATION/POSITION TIME  TEMP    WIND        PRES    WAVE
                       AIR SEA DIR/SP/G            HT/PER
                 (UTC) (F)     (DEG/KT/KT) (MB)    (FT/S)
MOUNT DESERT ROC 1700   60      40/  7/  8 1012.1R
MATINICUS ROCK   1700   60      60/  7/  8 1011.8F
ISLE OF SHOALS   1700   71      20/  7/  8 1011.4F
JEFFREYS LEDGE   1708      69                N/A     2/ 8
CASHES LEDGE BUO 1750   71 73  140/  4/  6 1011.2F   1/ 7
GEORGES BANK BUO 1650   69 66              1011.1    2/ 7
$$

.............KEY..............
   WCI - WIND CHILL
   TC  - TEMPERATURE IN CELSIUS
   VSB - VISIBILITY IN MILES
   HX  - HEAT INDEX
   FAIR- INDICATES FEW OR NO CLOUDS BELOW 12,000 FT, WITH NO
         SIGNIFICANT WEATHER AND/OR OBSTRUCTIONS TO VISIBILITY.






USA.gov is the U.S. government's official web portal to all federal, state and local government web resources and services.